Location: Izdebno
(52.6670°N, 16.2170°E)
Time: 09:39:12
(UTC+01:00)

Vanguard 2 - Pass Details

Date: 30 September 2023
Orbit: 552 x 2923 km, 32.9° (Epoch: 07 December)

Event Time Altitude Azimuth Distance (km) Brightness Sun altitude
Rises 19:16:46 0° 229° (SW) 6,682 13.1 -7.1°
Reaches altitude 10° 19:22:26 10° 219° (SW) 5,477 12.4 -8.0°
Maximum altitude 19:34:10 27° 172° (S) 3,594 10.8 -9.7°
Drops below altitude 10° 19:42:55 10° 121° (ESE) 4,014 10.6 -11.0°
Enters shadow 19:42:58 10° 121° (ESE) 4,021 10.6 -11.0°
